TimeCST,TemperatureF,Dew PointF,Humidity,Sea Level PressureIn,VisibilityMPH,Wind Direction,Wind SpeedMPH,Gust SpeedMPH,PrecipitationIn,Events,Conditions,WindDirDegrees,DateUTC
12:45 AM,66.2,66.2,100,30.08,7.0,Calm,Calm,-,N/A,,Clear,0,2012-02-21 06:45:00
2:20 AM,64.4,64.4,100,30.06,7.0,Calm,Calm,-,N/A,,Clear,0,2012-02-21 08:20:00
2:41 AM,64.4,64.4,100,30.08,7.0,Calm,Calm,-,N/A,,Clear,0,2012-02-21 08:41:00
3:58 AM,62.6,62.6,100,30.05,7.0,Calm,Calm,-,N/A,,Clear,0,2012-02-21 09:58:00
4:51 AM,62.6,62.6,100,30.05,7.0,Calm,Calm,-,N/A,,Clear,0,2012-02-21 10:51:00
5:40 AM,62.6,62.6,100,30.04,7.0,East,3.5,-,N/A,,Clear,100,2012-02-21 11:40:00
6:40 AM,64.4,64.4,100,30.08,7.0,Calm,Calm,-,N/A,,Clear,0,2012-02-21 12:40:00
7:43 AM,69.8,68.0,94,30.10,8.0,East,3.5,-,N/A,,Clear,90,2012-02-21 13:43:00
8:41 AM,73.4,69.8,88,30.15,8.0,Calm,Calm,-,N/A,,Partly Cloudy,0,2012-02-21 14:41:00
9:56 AM,75.2,71.6,89,30.13,8.0,ESE,9.2,-,N/A,,Scattered Clouds,120,2012-02-21 15:56:00
10:45 AM,80.6,68.0,65,30.13,8.0,ESE,9.2,-,N/A,,Scattered Clouds,120,2012-02-21 16:45:00
11:50 AM,80.6,69.8,70,30.09,8.0,East,9.2,-,N/A,,Mostly Cloudy,100,2012-02-21 17:50:00
12:43 PM,80.6,69.8,70,30.09,8.0,East,9.2,-,N/A,,Scattered Clouds,100,2012-02-21 18:43:00
1:54 PM,82.4,68.0,62,30.06,8.0,ESE,10.4,-,N/A,,Scattered Clouds,120,2012-02-21 19:54:00
2:42 PM,80.6,68.0,65,30.06,8.0,SE,8.1,-,N/A,,Scattered Clouds,130,2012-02-21 20:42:00
3:42 PM,78.8,69.8,74,30.03,8.0,ESE,10.4,-,N/A,,Scattered Clouds,120,2012-02-21 21:42:00
4:44 PM,77.0,69.8,78,30.04,8.0,SE,6.9,-,N/A,,Scattered Clouds,130,2012-02-21 22:44:00
5:40 PM,75.2,69.8,83,30.01,8.0,East,6.9,-,N/A,,Scattered Clouds,100,2012-02-21 23:40:00
6:40 PM,71.6,69.8,94,30.05,7.0,East,3.5,-,N/A,,Scattered Clouds,90,2012-02-22 00:40:00
7:42 PM,69.8,68.0,94,30.07,8.0,Calm,Calm,-,N/A,,Scattered Clouds,0,2012-02-22 01:42:00
8:40 PM,68.0,68.0,100,30.12,8.0,Calm,Calm,-,N/A,,Partly Cloudy,0,2012-02-22 02:40:00
9:49 PM,68.0,68.0,100,30.10,7.0,Calm,Calm,-,N/A,,Partly Cloudy,0,2012-02-22 03:49:00
10:42 PM,68.0,68.0,100,30.10,7.0,Calm,Calm,-,N/A,,Partly Cloudy,0,2012-02-22 04:42:00
11:44 PM,68.0,68.0,100,30.06,7.0,Calm,Calm,-,N/A,,Partly Cloudy,0,2012-02-22 05:44:00